Location: Keppel Henge
(44.7900°N, 80.9447°W)
Time: 16:38:21
(UTC-04:00)

Vanguard 2 Rocket - Visible Passes

Search period start: 22 July 2018 00:00
Search period end: 01 August 2018 00:00
Orbit: 554 x 3327 km, 32.9° (Epoch: 22 July)

Date Brightness Start Highest point End Pass type
(mag) Time Alt. Az. Time Alt. Az. Time Alt. Az.
22 Jul 9.1 02:15:42 10° ESE 02:15:42 10° ESE 02:15:50 10° ESE visible
22 Jul 8.2 04:21:31 20° SW 04:25:13 33° SSE 04:33:59 10° ESE visible
23 Jul 8.1 03:25:25 25° SSE 03:26:03 25° SSE 03:32:30 10° ESE visible
24 Jul 8.8 02:29:23 14° SE 02:29:23 14° SE 02:31:06 10° ESE visible
24 Jul 8.2 04:35:11 17° SW 04:39:12 34° S 04:47:49 10° ESE visible
25 Jul 7.8 03:39:10 27° S 03:39:57 28° SSE 03:46:36 10° ESE visible
26 Jul 8.6 02:43:11 17° SE 02:43:11 17° SE 02:45:35 10° ESE visible
26 Jul 8.2 04:49:01 15° SW 04:53:16 31° S 05:01:25 10° ESE visible
27 Jul 7.7 03:53:05 27° S 03:53:59 28° S 04:00:27 10° ESE visible
28 Jul 8.5 02:57:12 18° SE 02:57:12 18° SE 02:59:45 10° ESE visible
28 Jul 8.4 05:03:03 12° WSW 05:07:24 26° S 05:14:43 10° SE visible
29 Jul 7.8 04:07:14 24° SSW 04:08:04 25° S 04:14:04 10° SE visible
30 Jul 8.5 03:11:30 17° SE 03:11:30 17° SE 03:13:39 10° SE visible
30 Jul 8.5 05:17:21 10° SW 05:21:34 20° S 05:27:29 10° SSE visible
31 Jul 8.1 04:21:42 20° SSW 04:22:14 20° S 04:27:18 10° SE visible
